Location: Buckhorn Peak
(37.6641°N, 120.1241°W)
Time: 11:41:41
(UTC+00:00)

Envisat - Pass Details

Date: 06 October 2024
Orbit: 761 x 763 km, 98.3° (Epoch: 06 November)

Event Time Altitude Azimuth Distance (km) Brightness Sun altitude
Rises 10:55:07 0° 15° (NNE) 3,232 6.7 -36.8°
Reaches altitude 10° 10:57:27 10° 18° (NNE) 2,302 5.9 -36.3°
Enters shadow 10:59:07 21° 22° (NNE) 1,658 5.1 -36.0°
